User: anonymous   Login
Location: Unspecified
(0.0000°N, 0.0000°E)
Time: 17:09:44
(UTC+00:00)
Language:

UHF F/O F4 - Orbit

View from above orbital plane
View from above orbital plane
View from above satellite
View from above satellite

Ground track
Ground track

The orbit data is extracted from the following two-line orbital elements,

1 23467U 95003A   20057.21991017 -.00000026  00000-0  00000+0 0  9991
2 23467   9.9002  21.4976 0003711 354.9860  30.3031  1.00272914 91871
Epoch (UTC): 26 February 2020 05:16:40
Eccentricity: 0.0003711
inclination: 9.9002°
perigee height: 35770 km
apogee height: 35801 km
right ascension of ascending node: 21.4976°
argument of perigee: 354.9860°
revolutions per day: 1.00272914
mean anomaly at epoch: 30.3031°
orbit number at epoch: 9187

The dashed part of the orbit path shows where the satellite is in the earth's shadow,  

DLR